When you browse on this site, cookies collect data to enhance your experience and personalize the content and advertising you see.
Visit our Privacy Policy to learn more. By continuing to use the site, you agree to this use of cookies and data.
EN

Hourly Weather Norwich

Today, 6 July, Monday

Time Temperature Precipitation Wind Pressure Humidity
00:00 +11°C° 0 mm 9 mps 754 mmHg 72%
01:00 +11°C° 0 mm 9 mps 754 mmHg 73%
02:00 +10°C° 0 mm 8 mps 755 mmHg 74%
03:00 +10°C° 0 mm 8 mps 755 mmHg 76%
04:00 +10°C° 0 mm 8 mps 756 mmHg 76%
05:00 +11°C° 0 mm 8 mps 756 mmHg 76%
06:00 +11°C° 0 mm 8 mps 756 mmHg 76%
07:00 +12°C° 0 mm 8 mps 757 mmHg 72%
08:00 +13°C° 0 mm 8 mps 758 mmHg 68%
09:00 +15°C° 0 mm 8 mps 758 mmHg 64%
10:00 +16°C° 0.3 mm 8 mps 759 mmHg 66%
11:00 +16°C° 0.3 mm 7 mps 759 mmHg 67%
12:00 +16°C° 0.3 mm 7 mps 759 mmHg 69%
13:00 +17°C° 0.3 mm 6 mps 760 mmHg 68%
14:00 +17°C° 0.3 mm 6 mps 760 mmHg 67%
15:00 +17°C° 0.3 mm 5 mps 761 mmHg 67%
16:00 +17°C° 0 mm 4 mps 761 mmHg 68%
17:00 +17°C° 0 mm 4 mps 762 mmHg 68%
18:00 +16°C° 0 mm 3 mps 762 mmHg 69%
19:00 +15°C° 0 mm 2 mps 762 mmHg 73%
20:00 +14°C° 0 mm 1 mps 763 mmHg 77%
21:00 +13°C° 0 mm 1 mps 763 mmHg 81%
22:00 +12°C° 0 mm 1 mps 763 mmHg 84%
23:00 +12°C° 0 mm 1 mps 763 mmHg 87%

Tomorrow, 7 July, Tuesday

Time Temperature Precipitation Wind Pressure Humidity
00:00 +10°C° 0 mm 2 mps 763 mmHg 91%
01:00 +9°C° 0 mm 2 mps 763 mmHg 90%
02:00 +9°C° 0 mm 3 mps 763 mmHg 90%
03:00 +8°C° 0 mm 3 mps 763 mmHg 90%
04:00 +9°C° 0 mm 3 mps 762 mmHg 86%
05:00 +10°C° 0 mm 3 mps 762 mmHg 82%
06:00 +11°C° 0 mm 3 mps 762 mmHg 78%
07:00 +13°C° 0 mm 4 mps 762 mmHg 75%
08:00 +14°C° 0 mm 5 mps 762 mmHg 71%
09:00 +16°C° 0 mm 6 mps 761 mmHg 68%
10:00 +16°C° 0.2 mm 6 mps 761 mmHg 69%
11:00 +16°C° 0.2 mm 6 mps 761 mmHg 70%
12:00 +16°C° 0.2 mm 6 mps 761 mmHg 71%
13:00 +15°C° 0.1 mm 6 mps 760 mmHg 74%
14:00 +14°C° 0.1 mm 5 mps 760 mmHg 76%
15:00 +13°C° 0.1 mm 5 mps 760 mmHg 79%
16:00 +13°C° 0.5 mm 4 mps 760 mmHg 84%
17:00 +12°C° 0.5 mm 3 mps 759 mmHg 88%
18:00 +13°C° 0.5 mm 2 mps 759 mmHg 93%
19:00 +12°C° 0.6 mm 3 mps 758 mmHg 93%
20:00 +12°C° 0.6 mm 4 mps 758 mmHg 94%
21:00 +13°C° 0.6 mm 5 mps 758 mmHg 95%
22:00 +13°C° 0.2 mm 5 mps 758 mmHg 95%
23:00 +13°C° 0.2 mm 5 mps 757 mmHg 95%

Day after tomorrow, 8 July, Wednesday

Time Temperature Precipitation Wind Pressure Humidity
00:00 +14°C° 0.2 mm 5 mps 757 mmHg 95%
01:00 +14°C° 0.1 mm 5 mps 757 mmHg 95%
02:00 +14°C° 0.1 mm 5 mps 757 mmHg 95%
03:00 +14°C° 0.1 mm 4 mps 757 mmHg 96%
04:00 +14°C° 0 mm 4 mps 757 mmHg 95%
05:00 +14°C° 0 mm 4 mps 757 mmHg 94%
06:00 +14°C° 0 mm 4 mps 757 mmHg 93%
07:00 +14°C° 0 mm 4 mps 758 mmHg 91%
08:00 +14°C° 0 mm 4 mps 759 mmHg 90%
09:00 +14°C° 0 mm 4 mps 759 mmHg 88%
10:00 +16°C° 0 mm 3 mps 759 mmHg 84%
11:00 +17°C° 0 mm 3 mps 760 mmHg 80%
12:00 +17°C° 0 mm 3 mps 760 mmHg 76%
13:00 +17°C° 0.1 mm 3 mps 760 mmHg 75%
14:00 +17°C° 0.1 mm 3 mps 760 mmHg 74%
15:00 +18°C° 0.1 mm 4 mps 760 mmHg 74%
16:00 +17°C° 0 mm 3 mps 760 mmHg 75%
17:00 +17°C° 0 mm 3 mps 761 mmHg 76%
18:00 +16°C° 0 mm 3 mps 761 mmHg 78%
19:00 +14°C° 0 mm 3 mps 761 mmHg 81%
20:00 +13°C° 0 mm 3 mps 761 mmHg 85%
21:00 +12°C° 0 mm 3 mps 761 mmHg 89%
22:00 +13°C° 0 mm 3 mps 760 mmHg 88%
23:00 +13°C° 0 mm 4 mps 760 mmHg 88%

9 July, Thursday

Time Temperature Precipitation Wind Pressure Humidity
00:00 +14°C° 0 mm 4 mps 760 mmHg 87%
01:00 +14°C° 0 mm 5 mps 759 mmHg 88%
02:00 +14°C° 0 mm 5 mps 759 mmHg 89%
03:00 +15°C° 0 mm 5 mps 758 mmHg 90%
04:00 +15°C° 0.3 mm 5 mps 758 mmHg 91%
05:00 +15°C° 0.3 mm 5 mps 757 mmHg 92%
06:00 +15°C° 0.3 mm 5 mps 757 mmHg 93%
07:00 +16°C° 0.1 mm 6 mps 757 mmHg 91%
08:00 +16°C° 0.1 mm 7 mps 756 mmHg 89%
09:00 +17°C° 0.1 mm 7 mps 756 mmHg 88%
10:00 +18°C° 0 mm 8 mps 756 mmHg 82%
11:00 +20°C° 0 mm 8 mps 756 mmHg 76%
12:00 +21°C° 0 mm 8 mps 755 mmHg 70%
13:00 +21°C° 0 mm 8 mps 755 mmHg 72%
14:00 +21°C° 0 mm 8 mps 755 mmHg 74%
15:00 +20°C° 0 mm 7 mps 755 mmHg 77%
16:00 +20°C° 0.1 mm 7 mps 754 mmHg 78%
17:00 +20°C° 0.1 mm 7 mps 754 mmHg 80%
18:00 +20°C° 0.1 mm 6 mps 754 mmHg 81%
19:00 +19°C° 0.1 mm 6 mps 754 mmHg 84%
20:00 +17°C° 0.1 mm 5 mps 754 mmHg 87%
21:00 +16°C° 0.1 mm 5 mps 754 mmHg 90%
22:00 +15°C° 0 mm 5 mps 754 mmHg 89%
23:00 +14°C° 0 mm 5 mps 754 mmHg 88%

10 July, Friday

Time Temperature Precipitation Wind Pressure Humidity
00:00 +13°C° 0 mm 5 mps 754 mmHg 87%
01:00 +13°C° 0 mm 5 mps 754 mmHg 87%
02:00 +13°C° 0 mm 5 mps 755 mmHg 87%
03:00 +12°C° 0 mm 5 mps 755 mmHg 87%
04:00 +12°C° 0 mm 5 mps 755 mmHg 85%
05:00 +13°C° 0 mm 6 mps 756 mmHg 84%
06:00 +13°C° 0 mm 6 mps 756 mmHg 82%
07:00 +13°C° 0.1 mm 6 mps 757 mmHg 79%
08:00 +14°C° 0.1 mm 6 mps 757 mmHg 76%
09:00 +15°C° 0.1 mm 6 mps 758 mmHg 72%
10:00 +15°C° 0.3 mm 6 mps 758 mmHg 71%
11:00 +15°C° 0.3 mm 5 mps 758 mmHg 69%
12:00 +16°C° 0.3 mm 5 mps 759 mmHg 67%
13:00 +16°C° 0.2 mm 5 mps 759 mmHg 66%
14:00 +16°C° 0.2 mm 5 mps 760 mmHg 64%
15:00 +17°C° 0.2 mm 4 mps 760 mmHg 63%
16:00 +17°C° 0 mm 4 mps 760 mmHg 64%
17:00 +15°C° 0 mm 4 mps 760 mmHg 66%
18:00 +15°C° 0 mm 4 mps 761 mmHg 68%
19:00 +13°C° 0 mm 3 mps 761 mmHg 73%
20:00 +13°C° 0 mm 2 mps 762 mmHg 79%
21:00 +10°C° 0 mm 2 mps 762 mmHg 85%
22:00 +10°C° 0 mm 2 mps 763 mmHg 85%
23:00 +10°C° 0 mm 2 mps 763 mmHg 85%

11 July, Saturday

Time Temperature Precipitation Wind Pressure Humidity
00:00 +10°C° 0 mm 2 mps 763 mmHg 85%
01:00 +9°C° 0 mm 2 mps 763 mmHg 86%
02:00 +9°C° 0 mm 2 mps 763 mmHg 87%
03:00 +9°C° 0 mm 2 mps 763 mmHg 89%
04:00 +10°C° 0 mm 2 mps 764 mmHg 87%
05:00 +10°C° 0 mm 2 mps 764 mmHg 86%
06:00 +12°C° 0 mm 2 mps 764 mmHg 85%
07:00 +14°C° 0 mm 1 mps 764 mmHg 79%
08:00 +15°C° 0 mm 1 mps 765 mmHg 74%
09:00 +18°C° 0 mm 1 mps 765 mmHg 69%
10:00 +18°C° 0.4 mm 1 mps 765 mmHg 69%
11:00 +17°C° 0.4 mm 2 mps 765 mmHg 70%
12:00 +18°C° 0.4 mm 3 mps 766 mmHg 70%
13:00 +18°C° 0.4 mm 3 mps 766 mmHg 69%
14:00 +18°C° 0.4 mm 3 mps 766 mmHg 69%
15:00 +18°C° 0.4 mm 3 mps 766 mmHg 68%
16:00 +18°C° 0.1 mm 2 mps 766 mmHg 69%
17:00 +18°C° 0.1 mm 2 mps 766 mmHg 70%
18:00 +18°C° 0.1 mm 2 mps 766 mmHg 71%
19:00 +16°C° 0 mm 2 mps 766 mmHg 77%
20:00 +15°C° 0 mm 2 mps 767 mmHg 83%
21:00 +13°C° 0 mm 1 mps 767 mmHg 88%
22:00 +13°C° 0 mm 1 mps 767 mmHg 88%
23:00 +12°C° 0 mm 1 mps 767 mmHg 88%
Show more